ARIANE 5 DEB (SYLDA), 26722

Orbit data source: Space-Track

ARIANE 5 DEB (SYLDA), 26722 is space debris in HEO originally from a launch on Thu, 08 Mar 2001 UTC launched from the French Guiana (FRGUI). Debris objects in space refer to the collection of defunct objects orbiting the Earth. Examples of debris include non-operational satellites, rocket bodies, and fragments generated from explosions, collisions, or faulty payload assembly.

Loading next visibility...
Identifier
26722, 2001-011D
Orbit
HEO
Country
Flag of FRFR
Related business
Manufacturer
Astrium
Mission
Spacecraft
Bus & Motor
SYLDA 5, Unknown motor
Mass
440 kg wet, 440 kg dry
Launch date (UTC)
2001-03-08 (25 years ago)
Launch vehicle
Unknown
Launch site
French Guiana (FRGUI)
Object type
Payload
Rocket body
Debris
Shape & HBR
Cyl, 2.5 m
Radar Cross Section
25.270 m², Large (>1 m²)

Expand to show TLE details & history
Last TLE update: 11 hours ago

TLE from 11 hours ago
0 ARIANE 5 DEB (SYLDA)
1 26722U 01011D   25291.11221076 -.00000219  00000-0  25709-2 0  9999
2 26722   2.1900  26.7520 7063276 352.4170   0.9481  2.22929319200517
Epoch: 2025-10-18T02:41Z
TLE epoch observation values (Epoch: 2025-10-18T02:41:35.009Z)
Latitude
-0.00001°
Longitude
-40.40377°
Altitude
889.191 km
Speed
9.674 km/s
True Right ascension
01h 47m 21s
True Declination
0° 00' 00"
Sunlit
Object was in full shadow at epoch
Visualization orbit readout
Latitude
Unknown
Longitude
Unknown
Altitude
Unknown
Speed
Unknown
Apparent Right ascension
Unknown
Apparent Declination
Unknown
Sunlit
N/A
Visualization observer readout
Local Sidereal Time
09:00:09
Azimuth
Unknown
Elevation
Unknown
Doppler factor
Unknown
Orbital elements
Apogee altitude
35,866.756 km
Perigee altitude
892.541 km
Semi-major axis
24,757.786 km
Eccentricity
0.70633
Inclination
2.19°
RAAN
26.752°
Arg. of periapsis
352.417°
True anomaly
7.76228°
Mean anomaly
0.9481°
Eccentric anomaly
3.22433°
Mean motion
0.55715 °/min
Orbital period
646.14 mins
BSTAR
0.0025709
Loading maneuver chart data...
Computing Atmospheric mass density...
Loading historical data...
Loading historical data...
Loading historical data...
Loading historical data...
Loading historical data...
Loading historical data...
Loading historical data...
Other satellites on launch #11 in the year 2001 (2001-03-08 UTC)

Documentation

Showing up to 5 results
|